<?xml version="1.0" encoding="UTF-8"?>
<gpx
version="1.1"
creator="Kashmir3D 9.350 - http://www.kashmir3d.com"
xmlns:xsi="http://www.w3.org/2001/XMLSchema-instance"
xmlns="http://www.topografix.com/GPX/1/1"
xmlns:kashmir3d="http://www.kashmir3d.com/namespace/kashmir3d"
xsi:schemaLocation="http://www.topografix.com/GPX/1/1 http://www.topografix.com/GPX/1/1/gpx.xsd
	http://www.kashmir3d.com/namespace/kashmir3d http://www.kashmir3d.com/namespace/kashmir3d.xsd">
<trk>
 <name>MIZUSAWAYAMA.KML(水沢山)</name>
 <number>1</number>
 <extensions>
 <kashmir3d:line_color>0000ff</kashmir3d:line_color>
 <kashmir3d:line_size>3</kashmir3d:line_size>
 <kashmir3d:line_style>1</kashmir3d:line_style>
 <kashmir3d:icon>901001</kashmir3d:icon>
 </extensions>
<trkseg>
<trkpt lat="36.481354" lon="138.945594">
 <ele>613</ele>
 <time>2020-03-24T15:16:28Z</time>
</trkpt>
<trkpt lat="36.481449" lon="138.945627">
 <ele>613.1</ele>
 <time>2020-03-24T15:16:28Z</time>
</trkpt>
<trkpt lat="36.481663" lon="138.945401">
 <ele>614.5</ele>
 <time>2020-03-24T15:16:29Z</time>
</trkpt>
<trkpt lat="36.481784" lon="138.945219">
 <ele>615.3</ele>
 <time>2020-03-24T15:16:29Z</time>
</trkpt>
<trkpt lat="36.481835" lon="138.945101">
 <ele>616</ele>
 <time>2020-03-24T15:16:29Z</time>
</trkpt>
<trkpt lat="36.481766" lon="138.944951">
 <ele>616.6</ele>
 <time>2020-03-24T15:16:29Z</time>
</trkpt>
<trkpt lat="36.481655" lon="138.944865">
 <ele>617.5</ele>
 <time>2020-03-24T15:16:29Z</time>
</trkpt>
<trkpt lat="36.481406" lon="138.944790">
 <ele>621.2</ele>
 <time>2020-03-24T15:16:29Z</time>
</trkpt>
<trkpt lat="36.480960" lon="138.944640">
 <ele>628.2</ele>
 <time>2020-03-24T15:16:29Z</time>
</trkpt>
<trkpt lat="36.480634" lon="138.944511">
 <ele>633.8</ele>
 <time>2020-03-24T15:16:29Z</time>
</trkpt>
<trkpt lat="36.480531" lon="138.944511">
 <ele>635.6</ele>
 <time>2020-03-24T15:16:29Z</time>
</trkpt>
<trkpt lat="36.480445" lon="138.944565">
 <ele>635.9</ele>
 <time>2020-03-24T15:16:30Z</time>
</trkpt>
<trkpt lat="36.480350" lon="138.944586">
 <ele>636.5</ele>
 <time>2020-03-24T15:16:30Z</time>
</trkpt>
<trkpt lat="36.480273" lon="138.944565">
 <ele>637.4</ele>
 <time>2020-03-24T15:16:30Z</time>
</trkpt>
<trkpt lat="36.480170" lon="138.944543">
 <ele>639.2</ele>
 <time>2020-03-24T15:16:30Z</time>
</trkpt>
<trkpt lat="36.480058" lon="138.944446">
 <ele>641</ele>
 <time>2020-03-24T15:16:30Z</time>
</trkpt>
<trkpt lat="36.479904" lon="138.944253">
 <ele>642.3</ele>
 <time>2020-03-24T15:16:30Z</time>
</trkpt>
<trkpt lat="36.479835" lon="138.944178">
 <ele>642.5</ele>
 <time>2020-03-24T15:16:30Z</time>
</trkpt>
<trkpt lat="36.479818" lon="138.944082">
 <ele>645.4</ele>
 <time>2020-03-24T15:16:30Z</time>
</trkpt>
<trkpt lat="36.479801" lon="138.943932">
 <ele>648.5</ele>
 <time>2020-03-24T15:16:30Z</time>
</trkpt>
<trkpt lat="36.479784" lon="138.943824">
 <ele>648.8</ele>
 <time>2020-03-24T15:16:30Z</time>
</trkpt>
<trkpt lat="36.479715" lon="138.943642">
 <ele>650</ele>
 <time>2020-03-24T15:16:31Z</time>
</trkpt>
<trkpt lat="36.479707" lon="138.943438">
 <ele>653.8</ele>
 <time>2020-03-24T15:16:31Z</time>
</trkpt>
<trkpt lat="36.479707" lon="138.943299">
 <ele>657.3</ele>
 <time>2020-03-24T15:16:31Z</time>
</trkpt>
<trkpt lat="36.479621" lon="138.943127">
 <ele>656.7</ele>
 <time>2020-03-24T15:16:31Z</time>
</trkpt>
<trkpt lat="36.479526" lon="138.942977">
 <ele>657.5</ele>
 <time>2020-03-24T15:16:31Z</time>
</trkpt>
<trkpt lat="36.479406" lon="138.942902">
 <ele>657.8</ele>
 <time>2020-03-24T15:16:31Z</time>
</trkpt>
<trkpt lat="36.479269" lon="138.942805">
 <ele>656.8</ele>
 <time>2020-03-24T15:16:31Z</time>
</trkpt>
<trkpt lat="36.479209" lon="138.942730">
 <ele>657.6</ele>
 <time>2020-03-24T15:16:31Z</time>
</trkpt>
<trkpt lat="36.479166" lon="138.942558">
 <ele>659.9</ele>
 <time>2020-03-24T15:16:31Z</time>
</trkpt>
<trkpt lat="36.479080" lon="138.942419">
 <ele>661.3</ele>
 <time>2020-03-24T15:16:32Z</time>
</trkpt>
<trkpt lat="36.479003" lon="138.942301">
 <ele>663.5</ele>
 <time>2020-03-24T15:16:32Z</time>
</trkpt>
<trkpt lat="36.478891" lon="138.942075">
 <ele>668.6</ele>
 <time>2020-03-24T15:16:32Z</time>
</trkpt>
<trkpt lat="36.478831" lon="138.941914">
 <ele>674.1</ele>
 <time>2020-03-24T15:16:32Z</time>
</trkpt>
<trkpt lat="36.478780" lon="138.941764">
 <ele>678.2</ele>
 <time>2020-03-24T15:16:32Z</time>
</trkpt>
<trkpt lat="36.478805" lon="138.941657">
 <ele>680.8</ele>
 <time>2020-03-24T15:16:32Z</time>
</trkpt>
<trkpt lat="36.478840" lon="138.941432">
 <ele>687.7</ele>
 <time>2020-03-24T15:16:32Z</time>
</trkpt>
<trkpt lat="36.478891" lon="138.941357">
 <ele>690.2</ele>
 <time>2020-03-24T15:16:32Z</time>
</trkpt>
<trkpt lat="36.478883" lon="138.941217">
 <ele>694</ele>
 <time>2020-03-24T15:16:32Z</time>
</trkpt>
<trkpt lat="36.478857" lon="138.941056">
 <ele>698.1</ele>
 <time>2020-03-24T15:16:32Z</time>
</trkpt>
<trkpt lat="36.478814" lon="138.940906">
 <ele>703.4</ele>
 <time>2020-03-24T15:16:33Z</time>
</trkpt>
<trkpt lat="36.478780" lon="138.940681">
 <ele>710.6</ele>
 <time>2020-03-24T15:16:33Z</time>
</trkpt>
<trkpt lat="36.478728" lon="138.940563">
 <ele>714.4</ele>
 <time>2020-03-24T15:16:33Z</time>
</trkpt>
<trkpt lat="36.478711" lon="138.940488">
 <ele>714.5</ele>
 <time>2020-03-24T15:16:33Z</time>
</trkpt>
<trkpt lat="36.478745" lon="138.940391">
 <ele>720.4</ele>
 <time>2020-03-24T15:16:33Z</time>
</trkpt>
<trkpt lat="36.478857" lon="138.940294">
 <ele>725.8</ele>
 <time>2020-03-24T15:16:33Z</time>
</trkpt>
<trkpt lat="36.479037" lon="138.940230">
 <ele>731.7</ele>
 <time>2020-03-24T15:16:33Z</time>
</trkpt>
<trkpt lat="36.479355" lon="138.940209">
 <ele>742.9</ele>
 <time>2020-03-24T15:16:33Z</time>
</trkpt>
<trkpt lat="36.479423" lon="138.940209">
 <ele>746.2</ele>
 <time>2020-03-24T15:16:33Z</time>
</trkpt>
<trkpt lat="36.479535" lon="138.940230">
 <ele>747.9</ele>
 <time>2020-03-24T15:16:34Z</time>
</trkpt>
<trkpt lat="36.479595" lon="138.940230">
 <ele>751.3</ele>
 <time>2020-03-24T15:16:34Z</time>
</trkpt>
<trkpt lat="36.479664" lon="138.940230">
 <ele>754.8</ele>
 <time>2020-03-24T15:16:34Z</time>
</trkpt>
<trkpt lat="36.479715" lon="138.940198">
 <ele>757.5</ele>
 <time>2020-03-24T15:16:34Z</time>
</trkpt>
<trkpt lat="36.479732" lon="138.940112">
 <ele>760.4</ele>
 <time>2020-03-24T15:16:34Z</time>
</trkpt>
<trkpt lat="36.479835" lon="138.940101">
 <ele>764.9</ele>
 <time>2020-03-24T15:16:34Z</time>
</trkpt>
<trkpt lat="36.479913" lon="138.940037">
 <ele>770</ele>
 <time>2020-03-24T15:16:34Z</time>
</trkpt>
<trkpt lat="36.479981" lon="138.940026">
 <ele>773</ele>
 <time>2020-03-24T15:16:34Z</time>
</trkpt>
<trkpt lat="36.480041" lon="138.940101">
 <ele>774.9</ele>
 <time>2020-03-24T15:16:34Z</time>
</trkpt>
<trkpt lat="36.480161" lon="138.940123">
 <ele>779.5</ele>
 <time>2020-03-24T15:16:34Z</time>
</trkpt>
<trkpt lat="36.480230" lon="138.940155">
 <ele>782</ele>
 <time>2020-03-24T15:16:35Z</time>
</trkpt>
<trkpt lat="36.480316" lon="138.940123">
 <ele>786.4</ele>
 <time>2020-03-24T15:16:35Z</time>
</trkpt>
<trkpt lat="36.480376" lon="138.940058">
 <ele>787.8</ele>
 <time>2020-03-24T15:16:35Z</time>
</trkpt>
<trkpt lat="36.480522" lon="138.939983">
 <ele>793.9</ele>
 <time>2020-03-24T15:16:35Z</time>
</trkpt>
<trkpt lat="36.480591" lon="138.939897">
 <ele>794.9</ele>
 <time>2020-03-24T15:16:35Z</time>
</trkpt>
<trkpt lat="36.480582" lon="138.939822">
 <ele>795.9</ele>
 <time>2020-03-24T15:16:35Z</time>
</trkpt>
<trkpt lat="36.480599" lon="138.939758">
 <ele>796.6</ele>
 <time>2020-03-24T15:16:35Z</time>
</trkpt>
<trkpt lat="36.480608" lon="138.939565">
 <ele>801.4</ele>
 <time>2020-03-24T15:16:35Z</time>
</trkpt>
<trkpt lat="36.480608" lon="138.939479">
 <ele>803.9</ele>
 <time>2020-03-24T15:16:35Z</time>
</trkpt>
<trkpt lat="36.480616" lon="138.939372">
 <ele>806.8</ele>
 <time>2020-03-24T15:16:36Z</time>
</trkpt>
<trkpt lat="36.480616" lon="138.939275">
 <ele>811.6</ele>
 <time>2020-03-24T15:16:36Z</time>
</trkpt>
<trkpt lat="36.480634" lon="138.939168">
 <ele>814.2</ele>
 <time>2020-03-24T15:16:36Z</time>
</trkpt>
<trkpt lat="36.480642" lon="138.939071">
 <ele>816.5</ele>
 <time>2020-03-24T15:16:36Z</time>
</trkpt>
<trkpt lat="36.480556" lon="138.938728">
 <ele>827.3</ele>
 <time>2020-03-24T15:16:36Z</time>
</trkpt>
<trkpt lat="36.480488" lon="138.938513">
 <ele>839.2</ele>
 <time>2020-03-24T15:16:36Z</time>
</trkpt>
<trkpt lat="36.480428" lon="138.938395">
 <ele>846.2</ele>
 <time>2020-03-24T15:16:36Z</time>
</trkpt>
<trkpt lat="36.480350" lon="138.938224">
 <ele>853</ele>
 <time>2020-03-24T15:16:36Z</time>
</trkpt>
<trkpt lat="36.480273" lon="138.938095">
 <ele>862.2</ele>
 <time>2020-03-24T15:16:36Z</time>
</trkpt>
<trkpt lat="36.480264" lon="138.937816">
 <ele>871.5</ele>
 <time>2020-03-24T15:16:36Z</time>
</trkpt>
<trkpt lat="36.480290" lon="138.937677">
 <ele>874.7</ele>
 <time>2020-03-24T15:16:37Z</time>
</trkpt>
<trkpt lat="36.480282" lon="138.937419">
 <ele>889</ele>
 <time>2020-03-24T15:16:37Z</time>
</trkpt>
<trkpt lat="36.480273" lon="138.937323">
 <ele>893.9</ele>
 <time>2020-03-24T15:16:37Z</time>
</trkpt>
<trkpt lat="36.480239" lon="138.937162">
 <ele>902.1</ele>
 <time>2020-03-24T15:16:37Z</time>
</trkpt>
<trkpt lat="36.480204" lon="138.936968">
 <ele>907</ele>
 <time>2020-03-24T15:16:37Z</time>
</trkpt>
<trkpt lat="36.480144" lon="138.936786">
 <ele>917.2</ele>
 <time>2020-03-24T15:16:37Z</time>
</trkpt>
<trkpt lat="36.480127" lon="138.936679">
 <ele>918.6</ele>
 <time>2020-03-24T15:16:37Z</time>
</trkpt>
<trkpt lat="36.480101" lon="138.936561">
 <ele>922.2</ele>
 <time>2020-03-24T15:16:37Z</time>
</trkpt>
<trkpt lat="36.480196" lon="138.936464">
 <ele>932.1</ele>
 <time>2020-03-24T15:16:37Z</time>
</trkpt>
<trkpt lat="36.480316" lon="138.936357">
 <ele>952.3</ele>
 <time>2020-03-24T15:16:38Z</time>
</trkpt>
<trkpt lat="36.480419" lon="138.936303">
 <ele>960</ele>
 <time>2020-03-24T15:16:38Z</time>
</trkpt>
<trkpt lat="36.480479" lon="138.936271">
 <ele>963.9</ele>
 <time>2020-03-24T15:16:38Z</time>
</trkpt>
<trkpt lat="36.480556" lon="138.936271">
 <ele>969.2</ele>
 <time>2020-03-24T15:16:38Z</time>
</trkpt>
<trkpt lat="36.480625" lon="138.936271">
 <ele>970.2</ele>
 <time>2020-03-24T15:16:38Z</time>
</trkpt>
<trkpt lat="36.480719" lon="138.936239">
 <ele>971.5</ele>
 <time>2020-03-24T15:16:38Z</time>
</trkpt>
<trkpt lat="36.480814" lon="138.936196">
 <ele>977</ele>
 <time>2020-03-24T15:16:38Z</time>
</trkpt>
<trkpt lat="36.480925" lon="138.936132">
 <ele>984.3</ele>
 <time>2020-03-24T15:16:38Z</time>
</trkpt>
<trkpt lat="36.481028" lon="138.936078">
 <ele>989</ele>
 <time>2020-03-24T15:16:38Z</time>
</trkpt>
<trkpt lat="36.481088" lon="138.936024">
 <ele>991.1</ele>
 <time>2020-03-24T15:16:38Z</time>
</trkpt>
<trkpt lat="36.481080" lon="138.935906">
 <ele>997.5</ele>
 <time>2020-03-24T15:16:39Z</time>
</trkpt>
<trkpt lat="36.481045" lon="138.935681">
 <ele>1009</ele>
 <time>2020-03-24T15:16:39Z</time>
</trkpt>
<trkpt lat="36.480977" lon="138.935466">
 <ele>1020.6</ele>
 <time>2020-03-24T15:16:39Z</time>
</trkpt>
<trkpt lat="36.480977" lon="138.935370">
 <ele>1026.8</ele>
 <time>2020-03-24T15:16:39Z</time>
</trkpt>
<trkpt lat="36.480917" lon="138.935241">
 <ele>1037.2</ele>
 <time>2020-03-24T15:16:39Z</time>
</trkpt>
<trkpt lat="36.480857" lon="138.935155">
 <ele>1044.1</ele>
 <time>2020-03-24T15:16:39Z</time>
</trkpt>
<trkpt lat="36.480822" lon="138.935080">
 <ele>1047.1</ele>
 <time>2020-03-24T15:16:39Z</time>
</trkpt>
<trkpt lat="36.480779" lon="138.935016">
 <ele>1052.8</ele>
 <time>2020-03-24T15:16:39Z</time>
</trkpt>
<trkpt lat="36.480754" lon="138.934930">
 <ele>1058.9</ele>
 <time>2020-03-24T15:16:39Z</time>
</trkpt>
<trkpt lat="36.480694" lon="138.934791">
 <ele>1066</ele>
 <time>2020-03-24T15:16:40Z</time>
</trkpt>
<trkpt lat="36.480659" lon="138.934715">
 <ele>1070.3</ele>
 <time>2020-03-24T15:16:40Z</time>
</trkpt>
<trkpt lat="36.480676" lon="138.934619">
 <ele>1073.6</ele>
 <time>2020-03-24T15:16:40Z</time>
</trkpt>
<trkpt lat="36.480676" lon="138.934522">
 <ele>1077</ele>
 <time>2020-03-24T15:16:40Z</time>
</trkpt>
<trkpt lat="36.480642" lon="138.934383">
 <ele>1086.1</ele>
 <time>2020-03-24T15:16:40Z</time>
</trkpt>
<trkpt lat="36.480599" lon="138.934308">
 <ele>1089.6</ele>
 <time>2020-03-24T15:16:40Z</time>
</trkpt>
<trkpt lat="36.480548" lon="138.934190">
 <ele>1099.5</ele>
 <time>2020-03-24T15:16:40Z</time>
</trkpt>
<trkpt lat="36.480513" lon="138.934104">
 <ele>1104.4</ele>
 <time>2020-03-24T15:16:40Z</time>
</trkpt>
<trkpt lat="36.480488" lon="138.933997">
 <ele>1108.3</ele>
 <time>2020-03-24T15:16:40Z</time>
</trkpt>
<trkpt lat="36.480488" lon="138.933879">
 <ele>1113.1</ele>
 <time>2020-03-24T15:16:40Z</time>
</trkpt>
<trkpt lat="36.480488" lon="138.933782">
 <ele>1117.9</ele>
 <time>2020-03-24T15:16:41Z</time>
</trkpt>
<trkpt lat="36.480513" lon="138.933653">
 <ele>1121.1</ele>
 <time>2020-03-24T15:16:41Z</time>
</trkpt>
<trkpt lat="36.480642" lon="138.933514">
 <ele>1130</ele>
 <time>2020-03-24T15:16:41Z</time>
</trkpt>
<trkpt lat="36.480711" lon="138.933428">
 <ele>1137</ele>
 <time>2020-03-24T15:16:41Z</time>
</trkpt>
<trkpt lat="36.480788" lon="138.933353">
 <ele>1141.8</ele>
 <time>2020-03-24T15:16:41Z</time>
</trkpt>
<trkpt lat="36.480857" lon="138.933224">
 <ele>1140.2</ele>
 <time>2020-03-24T15:16:41Z</time>
</trkpt>
<trkpt lat="36.480882" lon="138.933106">
 <ele>1137.6</ele>
 <time>2020-03-24T15:16:41Z</time>
</trkpt>
<trkpt lat="36.480882" lon="138.933031">
 <ele>1138.4</ele>
 <time>2020-03-24T15:16:41Z</time>
</trkpt>
<trkpt lat="36.480865" lon="138.932977">
 <ele>1139.3</ele>
 <time>2020-03-24T15:16:41Z</time>
</trkpt>
<trkpt lat="36.480865" lon="138.932859">
 <ele>1141.8</ele>
 <time>2020-03-24T15:16:42Z</time>
</trkpt>
<trkpt lat="36.480848" lon="138.932741">
 <ele>1139.7</ele>
 <time>2020-03-24T15:16:42Z</time>
</trkpt>
<trkpt lat="36.480797" lon="138.932634">
 <ele>1137.6</ele>
 <time>2020-03-24T15:16:42Z</time>
</trkpt>
<trkpt lat="36.480754" lon="138.932484">
 <ele>1134.1</ele>
 <time>2020-03-24T15:16:42Z</time>
</trkpt>
<trkpt lat="36.480694" lon="138.932334">
 <ele>1143.2</ele>
 <time>2020-03-24T15:16:42Z</time>
</trkpt>
<trkpt lat="36.480625" lon="138.932194">
 <ele>1146</ele>
 <time>2020-03-24T15:16:42Z</time>
</trkpt>
<trkpt lat="36.480582" lon="138.932065">
 <ele>1145.6</ele>
 <time>2020-03-24T15:16:42Z</time>
</trkpt>
<trkpt lat="36.480616" lon="138.932012">
 <ele>1142.9</ele>
 <time>2020-03-24T15:16:42Z</time>
</trkpt>
<trkpt lat="36.480616" lon="138.931819">
 <ele>1139.1</ele>
 <time>2020-03-24T15:16:42Z</time>
</trkpt>
<trkpt lat="36.480591" lon="138.931658">
 <ele>1137.2</ele>
 <time>2020-03-24T15:16:42Z</time>
</trkpt>
<trkpt lat="36.480573" lon="138.931497">
 <ele>1145</ele>
 <time>2020-03-24T15:16:43Z</time>
</trkpt>
<trkpt lat="36.480565" lon="138.931347">
 <ele>1145.3</ele>
 <time>2020-03-24T15:16:43Z</time>
</trkpt>
<trkpt lat="36.480548" lon="138.931164">
 <ele>1148.5</ele>
 <time>2020-03-24T15:16:43Z</time>
</trkpt>
<trkpt lat="36.480548" lon="138.930993">
 <ele>1147.5</ele>
 <time>2020-03-24T15:16:43Z</time>
</trkpt>
<trkpt lat="36.480556" lon="138.930832">
 <ele>1142.6</ele>
 <time>2020-03-24T15:16:43Z</time>
</trkpt>
<trkpt lat="36.480608" lon="138.930714">
 <ele>1148.3</ele>
 <time>2020-03-24T15:16:43Z</time>
</trkpt>
<trkpt lat="36.480676" lon="138.930574">
 <ele>1172</ele>
 <time>2020-03-24T15:16:43Z</time>
</trkpt>
<trkpt lat="36.480754" lon="138.930445">
 <ele>1177.5</ele>
 <time>2020-03-24T15:16:43Z</time>
</trkpt>
<trkpt lat="36.480779" lon="138.930263">
 <ele>1178.9</ele>
 <time>2020-03-24T15:16:43Z</time>
</trkpt>
<trkpt lat="36.480788" lon="138.930113">
 <ele>1176.9</ele>
 <time>2020-03-24T15:16:44Z</time>
</trkpt>
<trkpt lat="36.480788" lon="138.929963">
 <ele>1179.3</ele>
 <time>2020-03-24T15:16:44Z</time>
</trkpt>
<trkpt lat="36.480762" lon="138.929780">
 <ele>1185.5</ele>
 <time>2020-03-24T15:16:44Z</time>
</trkpt>
<trkpt lat="36.480719" lon="138.929725">
 <ele>1191.8</ele>
 <time>2020-03-24T15:16:44Z</time>
</trkpt>
<trkpt lat="36.480762" lon="138.929780">
 <ele>1185.5</ele>
 <time>2020-03-24T15:16:44Z</time>
</trkpt>
<trkpt lat="36.480788" lon="138.929963">
 <ele>1179.3</ele>
 <time>2020-03-24T15:16:44Z</time>
</trkpt>
<trkpt lat="36.480788" lon="138.930113">
 <ele>1176.9</ele>
 <time>2020-03-24T15:16:44Z</time>
</trkpt>
<trkpt lat="36.480779" lon="138.930263">
 <ele>1178.9</ele>
 <time>2020-03-24T15:16:44Z</time>
</trkpt>
<trkpt lat="36.480754" lon="138.930445">
 <ele>1177.5</ele>
 <time>2020-03-24T15:16:44Z</time>
</trkpt>
<trkpt lat="36.480676" lon="138.930574">
 <ele>1172</ele>
 <time>2020-03-24T15:16:44Z</time>
</trkpt>
<trkpt lat="36.480608" lon="138.930714">
 <ele>1148.3</ele>
 <time>2020-03-24T15:16:45Z</time>
</trkpt>
<trkpt lat="36.480556" lon="138.930832">
 <ele>1142.6</ele>
 <time>2020-03-24T15:16:45Z</time>
</trkpt>
<trkpt lat="36.480548" lon="138.930993">
 <ele>1147.5</ele>
 <time>2020-03-24T15:16:45Z</time>
</trkpt>
<trkpt lat="36.480548" lon="138.931164">
 <ele>1148.5</ele>
 <time>2020-03-24T15:16:45Z</time>
</trkpt>
<trkpt lat="36.480565" lon="138.931347">
 <ele>1145.3</ele>
 <time>2020-03-24T15:16:45Z</time>
</trkpt>
<trkpt lat="36.480573" lon="138.931497">
 <ele>1145</ele>
 <time>2020-03-24T15:16:45Z</time>
</trkpt>
<trkpt lat="36.480591" lon="138.931658">
 <ele>1137.2</ele>
 <time>2020-03-24T15:16:45Z</time>
</trkpt>
<trkpt lat="36.480616" lon="138.931819">
 <ele>1139.1</ele>
 <time>2020-03-24T15:16:45Z</time>
</trkpt>
<trkpt lat="36.480616" lon="138.932012">
 <ele>1142.9</ele>
 <time>2020-03-24T15:16:45Z</time>
</trkpt>
<trkpt lat="36.480582" lon="138.932065">
 <ele>1145.6</ele>
 <time>2020-03-24T15:16:46Z</time>
</trkpt>
<trkpt lat="36.480625" lon="138.932194">
 <ele>1146</ele>
 <time>2020-03-24T15:16:46Z</time>
</trkpt>
<trkpt lat="36.480694" lon="138.932334">
 <ele>1143.2</ele>
 <time>2020-03-24T15:16:46Z</time>
</trkpt>
<trkpt lat="36.480754" lon="138.932484">
 <ele>1134.1</ele>
 <time>2020-03-24T15:16:46Z</time>
</trkpt>
<trkpt lat="36.480797" lon="138.932634">
 <ele>1137.6</ele>
 <time>2020-03-24T15:16:46Z</time>
</trkpt>
<trkpt lat="36.480848" lon="138.932741">
 <ele>1139.7</ele>
 <time>2020-03-24T15:16:46Z</time>
</trkpt>
<trkpt lat="36.480865" lon="138.932859">
 <ele>1141.8</ele>
 <time>2020-03-24T15:16:46Z</time>
</trkpt>
<trkpt lat="36.480865" lon="138.932977">
 <ele>1139.3</ele>
 <time>2020-03-24T15:16:46Z</time>
</trkpt>
<trkpt lat="36.480882" lon="138.933031">
 <ele>1138.4</ele>
 <time>2020-03-24T15:16:46Z</time>
</trkpt>
<trkpt lat="36.480882" lon="138.933106">
 <ele>1137.6</ele>
 <time>2020-03-24T15:16:46Z</time>
</trkpt>
<trkpt lat="36.480857" lon="138.933224">
 <ele>1140.2</ele>
 <time>2020-03-24T15:16:47Z</time>
</trkpt>
<trkpt lat="36.480788" lon="138.933353">
 <ele>1141.8</ele>
 <time>2020-03-24T15:16:47Z</time>
</trkpt>
<trkpt lat="36.480711" lon="138.933428">
 <ele>1137</ele>
 <time>2020-03-24T15:16:47Z</time>
</trkpt>
<trkpt lat="36.480642" lon="138.933514">
 <ele>1130</ele>
 <time>2020-03-24T15:16:47Z</time>
</trkpt>
<trkpt lat="36.480513" lon="138.933653">
 <ele>1121.1</ele>
 <time>2020-03-24T15:16:47Z</time>
</trkpt>
<trkpt lat="36.480488" lon="138.933782">
 <ele>1117.9</ele>
 <time>2020-03-24T15:16:47Z</time>
</trkpt>
<trkpt lat="36.480488" lon="138.933879">
 <ele>1113.1</ele>
 <time>2020-03-24T15:16:47Z</time>
</trkpt>
<trkpt lat="36.480488" lon="138.933997">
 <ele>1108.3</ele>
 <time>2020-03-24T15:16:47Z</time>
</trkpt>
<trkpt lat="36.480513" lon="138.934104">
 <ele>1104.4</ele>
 <time>2020-03-24T15:16:47Z</time>
</trkpt>
<trkpt lat="36.480548" lon="138.934190">
 <ele>1099.5</ele>
 <time>2020-03-24T15:16:48Z</time>
</trkpt>
<trkpt lat="36.480599" lon="138.934308">
 <ele>1089.6</ele>
 <time>2020-03-24T15:16:48Z</time>
</trkpt>
<trkpt lat="36.480642" lon="138.934383">
 <ele>1086.1</ele>
 <time>2020-03-24T15:16:48Z</time>
</trkpt>
<trkpt lat="36.480676" lon="138.934522">
 <ele>1077</ele>
 <time>2020-03-24T15:16:48Z</time>
</trkpt>
<trkpt lat="36.480676" lon="138.934619">
 <ele>1073.6</ele>
 <time>2020-03-24T15:16:48Z</time>
</trkpt>
<trkpt lat="36.480659" lon="138.934715">
 <ele>1070.3</ele>
 <time>2020-03-24T15:16:48Z</time>
</trkpt>
<trkpt lat="36.480694" lon="138.934791">
 <ele>1066</ele>
 <time>2020-03-24T15:16:48Z</time>
</trkpt>
<trkpt lat="36.480754" lon="138.934930">
 <ele>1058.9</ele>
 <time>2020-03-24T15:16:48Z</time>
</trkpt>
<trkpt lat="36.480779" lon="138.935016">
 <ele>1052.8</ele>
 <time>2020-03-24T15:16:48Z</time>
</trkpt>
<trkpt lat="36.480822" lon="138.935080">
 <ele>1047.1</ele>
 <time>2020-03-24T15:16:48Z</time>
</trkpt>
<trkpt lat="36.480857" lon="138.935155">
 <ele>1044.1</ele>
 <time>2020-03-24T15:16:49Z</time>
</trkpt>
<trkpt lat="36.480917" lon="138.935241">
 <ele>1037.2</ele>
 <time>2020-03-24T15:16:49Z</time>
</trkpt>
<trkpt lat="36.480977" lon="138.935370">
 <ele>1026.8</ele>
 <time>2020-03-24T15:16:49Z</time>
</trkpt>
<trkpt lat="36.480977" lon="138.935466">
 <ele>1020.6</ele>
 <time>2020-03-24T15:16:49Z</time>
</trkpt>
<trkpt lat="36.481045" lon="138.935681">
 <ele>1009</ele>
 <time>2020-03-24T15:16:49Z</time>
</trkpt>
<trkpt lat="36.481080" lon="138.935906">
 <ele>997.5</ele>
 <time>2020-03-24T15:16:49Z</time>
</trkpt>
<trkpt lat="36.481088" lon="138.936024">
 <ele>991.1</ele>
 <time>2020-03-24T15:16:49Z</time>
</trkpt>
<trkpt lat="36.481028" lon="138.936078">
 <ele>989</ele>
 <time>2020-03-24T15:16:49Z</time>
</trkpt>
<trkpt lat="36.480925" lon="138.936132">
 <ele>984.3</ele>
 <time>2020-03-24T15:16:49Z</time>
</trkpt>
<trkpt lat="36.480814" lon="138.936196">
 <ele>977</ele>
 <time>2020-03-24T15:16:50Z</time>
</trkpt>
<trkpt lat="36.480719" lon="138.936239">
 <ele>971.5</ele>
 <time>2020-03-24T15:16:50Z</time>
</trkpt>
<trkpt lat="36.480625" lon="138.936271">
 <ele>970.2</ele>
 <time>2020-03-24T15:16:50Z</time>
</trkpt>
<trkpt lat="36.480556" lon="138.936271">
 <ele>969.2</ele>
 <time>2020-03-24T15:16:50Z</time>
</trkpt>
<trkpt lat="36.480479" lon="138.936271">
 <ele>963.9</ele>
 <time>2020-03-24T15:16:50Z</time>
</trkpt>
<trkpt lat="36.480419" lon="138.936303">
 <ele>960</ele>
 <time>2020-03-24T15:16:50Z</time>
</trkpt>
<trkpt lat="36.480316" lon="138.936357">
 <ele>952.3</ele>
 <time>2020-03-24T15:16:50Z</time>
</trkpt>
<trkpt lat="36.480196" lon="138.936464">
 <ele>932.1</ele>
 <time>2020-03-24T15:16:50Z</time>
</trkpt>
<trkpt lat="36.480101" lon="138.936561">
 <ele>922.2</ele>
 <time>2020-03-24T15:16:50Z</time>
</trkpt>
<trkpt lat="36.480127" lon="138.936679">
 <ele>918.6</ele>
 <time>2020-03-24T15:16:50Z</time>
</trkpt>
<trkpt lat="36.480144" lon="138.936786">
 <ele>917.2</ele>
 <time>2020-03-24T15:16:51Z</time>
</trkpt>
<trkpt lat="36.480204" lon="138.936968">
 <ele>907</ele>
 <time>2020-03-24T15:16:51Z</time>
</trkpt>
<trkpt lat="36.480239" lon="138.937162">
 <ele>902.1</ele>
 <time>2020-03-24T15:16:51Z</time>
</trkpt>
<trkpt lat="36.480273" lon="138.937323">
 <ele>893.9</ele>
 <time>2020-03-24T15:16:51Z</time>
</trkpt>
<trkpt lat="36.480282" lon="138.937419">
 <ele>889</ele>
 <time>2020-03-24T15:16:51Z</time>
</trkpt>
<trkpt lat="36.480290" lon="138.937677">
 <ele>874.7</ele>
 <time>2020-03-24T15:16:51Z</time>
</trkpt>
<trkpt lat="36.480264" lon="138.937816">
 <ele>871.5</ele>
 <time>2020-03-24T15:16:51Z</time>
</trkpt>
<trkpt lat="36.480273" lon="138.938095">
 <ele>862.2</ele>
 <time>2020-03-24T15:16:51Z</time>
</trkpt>
<trkpt lat="36.480350" lon="138.938224">
 <ele>853</ele>
 <time>2020-03-24T15:16:51Z</time>
</trkpt>
<trkpt lat="36.480428" lon="138.938395">
 <ele>846.2</ele>
 <time>2020-03-24T15:16:51Z</time>
</trkpt>
<trkpt lat="36.480488" lon="138.938513">
 <ele>839.2</ele>
 <time>2020-03-24T15:16:52Z</time>
</trkpt>
<trkpt lat="36.480556" lon="138.938728">
 <ele>827.3</ele>
 <time>2020-03-24T15:16:52Z</time>
</trkpt>
<trkpt lat="36.480642" lon="138.939071">
 <ele>816.5</ele>
 <time>2020-03-24T15:16:52Z</time>
</trkpt>
<trkpt lat="36.480634" lon="138.939168">
 <ele>814.2</ele>
 <time>2020-03-24T15:16:52Z</time>
</trkpt>
<trkpt lat="36.480616" lon="138.939275">
 <ele>811.6</ele>
 <time>2020-03-24T15:16:52Z</time>
</trkpt>
<trkpt lat="36.480616" lon="138.939372">
 <ele>806.8</ele>
 <time>2020-03-24T15:16:52Z</time>
</trkpt>
<trkpt lat="36.480608" lon="138.939479">
 <ele>803.9</ele>
 <time>2020-03-24T15:16:52Z</time>
</trkpt>
<trkpt lat="36.480608" lon="138.939565">
 <ele>801.4</ele>
 <time>2020-03-24T15:16:52Z</time>
</trkpt>
<trkpt lat="36.480599" lon="138.939758">
 <ele>796.6</ele>
 <time>2020-03-24T15:16:52Z</time>
</trkpt>
<trkpt lat="36.480582" lon="138.939822">
 <ele>795.9</ele>
 <time>2020-03-24T15:16:53Z</time>
</trkpt>
<trkpt lat="36.480591" lon="138.939897">
 <ele>794.9</ele>
 <time>2020-03-24T15:16:53Z</time>
</trkpt>
<trkpt lat="36.480522" lon="138.939983">
 <ele>793.9</ele>
 <time>2020-03-24T15:16:53Z</time>
</trkpt>
<trkpt lat="36.480376" lon="138.940058">
 <ele>787.8</ele>
 <time>2020-03-24T15:16:53Z</time>
</trkpt>
<trkpt lat="36.480316" lon="138.940123">
 <ele>786.4</ele>
 <time>2020-03-24T15:16:53Z</time>
</trkpt>
<trkpt lat="36.480230" lon="138.940155">
 <ele>782</ele>
 <time>2020-03-24T15:16:53Z</time>
</trkpt>
<trkpt lat="36.480161" lon="138.940123">
 <ele>779.5</ele>
 <time>2020-03-24T15:16:53Z</time>
</trkpt>
<trkpt lat="36.480041" lon="138.940101">
 <ele>774.9</ele>
 <time>2020-03-24T15:16:53Z</time>
</trkpt>
<trkpt lat="36.479981" lon="138.940026">
 <ele>773</ele>
 <time>2020-03-24T15:16:53Z</time>
</trkpt>
<trkpt lat="36.479913" lon="138.940037">
 <ele>770</ele>
 <time>2020-03-24T15:16:53Z</time>
</trkpt>
<trkpt lat="36.479835" lon="138.940101">
 <ele>764.9</ele>
 <time>2020-03-24T15:16:54Z</time>
</trkpt>
<trkpt lat="36.479732" lon="138.940112">
 <ele>760.4</ele>
 <time>2020-03-24T15:16:54Z</time>
</trkpt>
<trkpt lat="36.479715" lon="138.940198">
 <ele>757.5</ele>
 <time>2020-03-24T15:16:54Z</time>
</trkpt>
<trkpt lat="36.479664" lon="138.940230">
 <ele>754.8</ele>
 <time>2020-03-24T15:16:54Z</time>
</trkpt>
<trkpt lat="36.479595" lon="138.940230">
 <ele>751.3</ele>
 <time>2020-03-24T15:16:54Z</time>
</trkpt>
<trkpt lat="36.479535" lon="138.940230">
 <ele>747.9</ele>
 <time>2020-03-24T15:16:54Z</time>
</trkpt>
<trkpt lat="36.479423" lon="138.940209">
 <ele>746.2</ele>
 <time>2020-03-24T15:16:54Z</time>
</trkpt>
<trkpt lat="36.479355" lon="138.940209">
 <ele>742.9</ele>
 <time>2020-03-24T15:16:54Z</time>
</trkpt>
<trkpt lat="36.479037" lon="138.940230">
 <ele>731.7</ele>
 <time>2020-03-24T15:16:54Z</time>
</trkpt>
<trkpt lat="36.478857" lon="138.940294">
 <ele>725.8</ele>
 <time>2020-03-24T15:16:55Z</time>
</trkpt>
<trkpt lat="36.478745" lon="138.940391">
 <ele>720.4</ele>
 <time>2020-03-24T15:16:55Z</time>
</trkpt>
<trkpt lat="36.478711" lon="138.940488">
 <ele>714.5</ele>
 <time>2020-03-24T15:16:55Z</time>
</trkpt>
<trkpt lat="36.478728" lon="138.940563">
 <ele>714.4</ele>
 <time>2020-03-24T15:16:55Z</time>
</trkpt>
<trkpt lat="36.478780" lon="138.940681">
 <ele>710.6</ele>
 <time>2020-03-24T15:16:55Z</time>
</trkpt>
<trkpt lat="36.478814" lon="138.940906">
 <ele>703.4</ele>
 <time>2020-03-24T15:16:55Z</time>
</trkpt>
<trkpt lat="36.478857" lon="138.941056">
 <ele>698.1</ele>
 <time>2020-03-24T15:16:55Z</time>
</trkpt>
<trkpt lat="36.478883" lon="138.941217">
 <ele>694</ele>
 <time>2020-03-24T15:16:55Z</time>
</trkpt>
<trkpt lat="36.478891" lon="138.941357">
 <ele>690.2</ele>
 <time>2020-03-24T15:16:55Z</time>
</trkpt>
<trkpt lat="36.478840" lon="138.941432">
 <ele>687.7</ele>
 <time>2020-03-24T15:16:55Z</time>
</trkpt>
<trkpt lat="36.478805" lon="138.941657">
 <ele>680.8</ele>
 <time>2020-03-24T15:16:56Z</time>
</trkpt>
<trkpt lat="36.478780" lon="138.941764">
 <ele>678.2</ele>
 <time>2020-03-24T15:16:56Z</time>
</trkpt>
<trkpt lat="36.478831" lon="138.941914">
 <ele>674.1</ele>
 <time>2020-03-24T15:16:56Z</time>
</trkpt>
<trkpt lat="36.478891" lon="138.942075">
 <ele>668.6</ele>
 <time>2020-03-24T15:16:56Z</time>
</trkpt>
<trkpt lat="36.479003" lon="138.942301">
 <ele>663.5</ele>
 <time>2020-03-24T15:16:56Z</time>
</trkpt>
<trkpt lat="36.479080" lon="138.942419">
 <ele>661.3</ele>
 <time>2020-03-24T15:16:56Z</time>
</trkpt>
<trkpt lat="36.479166" lon="138.942558">
 <ele>659.9</ele>
 <time>2020-03-24T15:16:56Z</time>
</trkpt>
<trkpt lat="36.479209" lon="138.942730">
 <ele>657.6</ele>
 <time>2020-03-24T15:16:56Z</time>
</trkpt>
<trkpt lat="36.479269" lon="138.942805">
 <ele>656.8</ele>
 <time>2020-03-24T15:16:56Z</time>
</trkpt>
<trkpt lat="36.479406" lon="138.942902">
 <ele>657.8</ele>
 <time>2020-03-24T15:16:56Z</time>
</trkpt>
<trkpt lat="36.479526" lon="138.942977">
 <ele>657.5</ele>
 <time>2020-03-24T15:16:57Z</time>
</trkpt>
<trkpt lat="36.479621" lon="138.943127">
 <ele>656.7</ele>
 <time>2020-03-24T15:16:57Z</time>
</trkpt>
<trkpt lat="36.479707" lon="138.943299">
 <ele>657.3</ele>
 <time>2020-03-24T15:16:57Z</time>
</trkpt>
<trkpt lat="36.479707" lon="138.943438">
 <ele>653.8</ele>
 <time>2020-03-24T15:16:57Z</time>
</trkpt>
<trkpt lat="36.479715" lon="138.943642">
 <ele>650</ele>
 <time>2020-03-24T15:16:57Z</time>
</trkpt>
<trkpt lat="36.479784" lon="138.943824">
 <ele>648.8</ele>
 <time>2020-03-24T15:16:57Z</time>
</trkpt>
<trkpt lat="36.479801" lon="138.943932">
 <ele>648.5</ele>
 <time>2020-03-24T15:16:57Z</time>
</trkpt>
<trkpt lat="36.479818" lon="138.944082">
 <ele>645.4</ele>
 <time>2020-03-24T15:16:57Z</time>
</trkpt>
<trkpt lat="36.479835" lon="138.944178">
 <ele>642.5</ele>
 <time>2020-03-24T15:16:57Z</time>
</trkpt>
<trkpt lat="36.479904" lon="138.944253">
 <ele>642.3</ele>
 <time>2020-03-24T15:16:58Z</time>
</trkpt>
<trkpt lat="36.480058" lon="138.944446">
 <ele>641</ele>
 <time>2020-03-24T15:16:58Z</time>
</trkpt>
<trkpt lat="36.480170" lon="138.944543">
 <ele>639.2</ele>
 <time>2020-03-24T15:16:58Z</time>
</trkpt>
<trkpt lat="36.480273" lon="138.944565">
 <ele>637.4</ele>
 <time>2020-03-24T15:16:58Z</time>
</trkpt>
<trkpt lat="36.480350" lon="138.944586">
 <ele>636.5</ele>
 <time>2020-03-24T15:16:58Z</time>
</trkpt>
<trkpt lat="36.480445" lon="138.944565">
 <ele>635.9</ele>
 <time>2020-03-24T15:16:58Z</time>
</trkpt>
<trkpt lat="36.480531" lon="138.944511">
 <ele>635.6</ele>
 <time>2020-03-24T15:16:58Z</time>
</trkpt>
<trkpt lat="36.480634" lon="138.944511">
 <ele>633.8</ele>
 <time>2020-03-24T15:16:58Z</time>
</trkpt>
<trkpt lat="36.480960" lon="138.944640">
 <ele>628.2</ele>
 <time>2020-03-24T15:16:58Z</time>
</trkpt>
<trkpt lat="36.481406" lon="138.944790">
 <ele>621.2</ele>
 <time>2020-03-24T15:16:58Z</time>
</trkpt>
<trkpt lat="36.481655" lon="138.944865">
 <ele>617.5</ele>
 <time>2020-03-24T15:16:59Z</time>
</trkpt>
<trkpt lat="36.481766" lon="138.944951">
 <ele>616.6</ele>
 <time>2020-03-24T15:16:59Z</time>
</trkpt>
<trkpt lat="36.481835" lon="138.945101">
 <ele>616</ele>
 <time>2020-03-24T15:16:59Z</time>
</trkpt>
<trkpt lat="36.481784" lon="138.945219">
 <ele>615.3</ele>
 <time>2020-03-24T15:16:59Z</time>
</trkpt>
<trkpt lat="36.481663" lon="138.945401">
 <ele>614.5</ele>
 <time>2020-03-24T15:16:59Z</time>
</trkpt>
<trkpt lat="36.481449" lon="138.945627">
 <ele>613.1</ele>
 <time>2020-03-24T15:16:59Z</time>
</trkpt>
<trkpt lat="36.481354" lon="138.945594">
 <ele>613</ele>
 <time>2020-03-24T15:16:59Z</time>
</trkpt>
</trkseg>
</trk>
</gpx>

